Home > Weather > Paderborn > Past weeks

Flag for Germany Weather for the Past 2 Weeks in Paderborn, North Rhine-Westphalia, Germany

Now
41 °F

Scattered clouds.


Feels Like: 33 °F
Forecast: 35 / 40 °F
Wind: 16 mph from Southwest

Location: Paderborn / Lippstadt

Current Time: Feb 9, 2016 at 10:04:02 AM

Latest Report: Feb 9, 2016 at 8:50 AM


Visibility: N/A

Pressure: 29.39 "Hg

Humidity: 76%

Dew point: 34 °F

Location of PaderbornLocation

Historic Weather in Paderborn — Graph

°F

Paderborn Temperature Yesterday

Maximum temperature yesterday: 46 °F (at 8:50 AM)
Minimum temperature yesterday: 36 °F (at 4:50 PM)
Average temperature yesterday: 43 °F

High & Low Weather Summary for the Past Weeks

 TemperatureHumidityPressure
High54 °F (Jan 25, 11:50 AM)100% (Jan 28, 5:50 AM)30.33 "Hg (Jan 28, 5:50 AM)
Low32 °F (Jan 30, 8:20 PM)44% (Jan 25, 8:50 PM)29.24 "Hg (Feb 8, 2:20 PM)
Average44 °F79%29.93 "Hg
* Reported Jan 25 8:20 AM — Feb 9 8:20 AM, Paderborn, Weather by CustomWeather, © 2016

Note: Actual official high and low records may vary slightly from our data, if they occured in-between our weather recording intervals... More about our weather records

Advertising

Paderborn Weather History for the Previous 24 Hours

 ConditionsComfort  
Time TempWeatherWind HumidityBarometerVisibility
8:20 AM
Tue, Feb 9
41 °FScattered clouds.15 mph76%29.39 "HgN/A
7:50 AM41 °FPassing clouds.14 mph70%29.42 "HgN/A
7:20 AM41 °FClear.21 mph70%29.42 "Hg10 mi
6:50 AM41 °FClear.21 mph70%29.42 "Hg10 mi
6:20 AM41 °FClear.25 mph66%29.42 "Hg10 mi
5:50 AM41 °FPassing clouds.24 mph66%29.42 "HgN/A
5:20 AM41 °FPassing clouds.22 mph66%29.42 "HgN/A
4:50 AM43 °FPassing clouds.24 mph61%29.42 "HgN/A
4:20 AM41 °FPassing clouds.22 mph66%29.42 "HgN/A
3:50 AM43 °FPassing clouds.24 mph57%29.42 "HgN/A
3:20 AM43 °FPassing clouds.25 mph61%29.42 "HgN/A
2:50 AM43 °FPassing clouds.26 mph61%29.42 "HgN/A
2:20 AM43 °FPassing clouds.28 mph66%29.42 "HgN/A
1:50 AM43 °FPassing clouds.30 mph66%29.39 "HgN/A
1:20 AM43 °FPassing clouds.31 mph66%29.39 "HgN/A
12:50 AM43 °FPassing clouds.31 mph71%29.36 "HgN/A
12:20 AM43 °FPassing clouds.32 mph71%29.36 "HgN/A
11:50 PM
Mon, Feb 8
41 °FLight rain. Passing clouds.32 mph81%29.36 "HgN/A
11:20 PM41 °FLight rain. Passing clouds.26 mph81%29.36 "HgN/A
10:50 PM39 °FLight rain. Passing clouds.29 mph87%29.36 "HgN/A
10:20 PM41 °FPassing clouds.29 mph76%29.33 "HgN/A
9:50 PM41 °FPassing clouds.26 mph76%29.33 "HgN/A
9:20 PM41 °FLight rain. Passing clouds.25 mph81%29.33 "HgN/A
9:00 PM41 °FRain. Passing clouds.28 mph76%29.33 "HgN/A
8:20 PM41 °FPassing clouds.26 mph76%29.33 "HgN/A
7:50 PM41 °FPassing clouds.28 mph76%29.33 "HgN/A
7:20 PM43 °FClear.29 mph71%29.33 "Hg10 mi
6:50 PM43 °FPassing clouds.25 mph66%29.30 "HgN/A
6:20 PM43 °FPassing clouds.25 mph71%29.30 "HgN/A
5:50 PM41 °FPassing clouds.18 mph81%29.30 "HgN/A
5:20 PM37 °FScattered clouds.13 mph87%29.30 "HgN/A
4:50 PM36 °FThundershowers. Scattered clouds.21 mph87%29.33 "HgN/A
4:20 PM45 °FThundershowers. Broken clouds.20 mph71%29.27 "HgN/A
3:50 PM46 °FScattered clouds.24 mph66%29.27 "HgN/A
3:20 PM43 °FScattered clouds.13 mph81%29.27 "HgN/A
2:50 PM46 °FScattered showers. Broken clouds.25 mph66%29.24 "HgN/A
2:20 PM46 °FScattered clouds.21 mph71%29.24 "HgN/A
1:50 PM46 °FPartly sunny.22 mph71%29.27 "HgN/A
1:20 PM45 °FPartly sunny.22 mph76%29.27 "HgN/A
12:50 PM45 °FPartly sunny.22 mph76%29.27 "HgN/A
12:20 PM45 °FLight rain. Partly sunny.25 mph81%29.30 "HgN/A
11:50 AM45 °FScattered clouds.20 mph76%29.30 "HgN/A
11:20 AM41 °FScattered clouds.21 mph87%29.30 "HgN/A
10:50 AM41 °FRain. Partly sunny.29 mph87%29.33 "Hg5 mi
10:20 AM43 °FRain. Partly sunny.20 mph87%29.33 "Hg5 mi
Weather by CustomWeather, © 2016

See weather overviewHow to use our weather pages